Regional Weather Roundup
Issued by NWS

Home | Current Version | Previous Version | Graphics & Text | Print | Product List | Glossary On
Versions: 1 2 3 4 5 6 7 8 9 10 11 12 13 14 15 16 17 18 19 20 21 22 23 24 25 26 27 28 29 30 31 32 33 34 35 36 37 38 39 40 41 42 43 44 45 46 47 48 49 50
000
ASUS45 KSLC 230410
RWRUT

UTAH REGIONAL WEATHER ROUNDUP
NATIONAL WEATHER SERVICE SALT LAKE CITY UT
1000 PM MDT FRI MAY 22 2015

UTZ001>011-023>025-230500-

NORTHERN UTAH

CITY           SKY/WX    TMP DP  RH WIND       PRES   REMARKS
BRIGHAM CITY   CLOUDY    60  41  50 SE7       29.89S
HILL AFB       MOCLDY    54  41  60 SE8       29.91R
LOGAN          LGT RAIN  53  48  83 E3        29.92R
OGDEN          CLOUDY    56  42  59 S8        29.90R
PROVO AIRPORT  CLOUDY    54  43  66 NW5       29.91R
SALT LAKE CITY MOCLDY    56  41  57 SE6       29.90R
VERNAL         MOCLDY    50  41  71 S9        29.95R
WENDOVER       CLOUDY    55  48  76 W6        29.89S
HEBER CITY     MOCLDY    45  39  81 CALM      29.94R
WEST JORDAN    CLOUDY    55  39  54 SE7       29.92R

$$

UTZ012>022-026-027-230500-

SOUTHERN/CENTRAL UTAH

CITY           SKY/WX    TMP DP  RH WIND       PRES   REMARKS
BLANDING       PTCLDY    54  27  35 W12       30.02R
BRYCE CANYON   CLOUDY    40  35  83 NW5       30.01R
CEDAR CITY     CLOUDY    45  39  79 S3        29.97S
DELTA          CLOUDY    49  42  75 S17       29.96R
HANKSVILLE     CLOUDY    59  32  36 SW12G17   29.90R
MILFORD        CLOUDY    46  41  82 S5        29.94F
MOAB/CYNLANDS  MOCLDY    60  37  42 N10       29.86R
PRICE          MOCLDY    51  35  54 E5        29.92R
ST GEORGE      CLOUDY    59  39  47 E7        29.95S
KANAB          CLOUDY    45  39  81 SW3       30.04R

$$

REGIONAL REPORTS     COLORADO/ARIZONA

CITY           SKY/WX    TMP DP  RH WIND       PRES   REMARKS
CRAIG, CO      MOCLDY    46  40  79 E9        30.00R
GRAND JUNCTION MOCLDY    51  45  79 NW3       29.94R
RIFLE          CLOUDY    50  41  71 SE3       29.98R
MONTROSE       PTCLDY    51  39  63 S15       29.99R
CORTEZ         PTCLDY    49  44  83 S5        29.97R
PAGE, AZ       MOCLDY    55  36  48 NW6       29.95R
GRAND CANYON   MOCLDY    34  33  96 CALM      30.04R
KINGMAN        CLOUDY    54  42  64 E5        29.95R
FLAGSTAFF      PTCLDY    39  33  79 CALM      30.04R

$$

REGIONAL REPORTS    NEVADA/IDAHO/WYOMING

CITY           SKY/WX    TMP DP  RH WIND       PRES   REMARKS
LAS VEGAS, NV  PTCLDY    67  39  35 SW10      29.84R
ELY            CLOUDY    44  39  82 W14       29.98R
ELKO           CLOUDY    48  43  82 SW5       29.94S
POCATELLO, ID  CLOUDY    57  50  77 SW5       29.91R
BURLEY         CLOUDY    53  48  83 CALM      29.88R
EVANSTON, WY   CLOUDY    41  38  89 SE3       30.00S
ROCK SPRINGS   MOCLDY    42  40  92 SW7       29.98S
KEMMERER       DRIZZLE   41  37  87 W3        30.01S

$$


USA.gov is the U.S. government's official web portal to all federal, state and local government web resources and services.